Total_Precipitation_Accumulation
0.82 0.81 0.79 0.77 0.75 0.91 1.18 1.38 1.42 1.50 1.57 1.47 1.25 1.10 1.05 1.00 0.94 1.05 0.91 0.97 0.98 1.04 1.36 1.47 1.35 1.20 1.09 0.93 0.78 0.66 0.61 0.60 0.55 0.43 0.37 0.40 0.49 0.55 0.51 0.44 0.40 0.38 0.32
1.22 1.17 1.04 1.05 1.00 1.09 1.20 1.40 1.53 1.79 1.75 1.69 1.34 1.21 1.19 1.21 1.12 1.18 1.17 1.30 1.20 1.13 1.27 1.33 1.34 1.29 1.18 1.06 0.91 0.77 0.65 0.60 0.55 0.40 0.34 0.34 0.41 0.51 0.51 0.51 0.47 0.43 0.37
1.51 1.47 1.28 1.18 1.25 1.34 1.38 1.43 1.53 1.77 1.72 1.60 1.32 1.30 1.26 1.16 1.03 1.01 1.07 1.21 1.19 1.09 1.13 1.16 1.22 1.23 1.20 1.20 1.12 1.02 0.82 0.64 0.54 0.42 0.35 0.29 0.27 0.33 0.36 0.41 0.45 0.45 0.40
1.67 1.61 1.38 1.25 1.48 1.51 1.50 1.58 1.63 1.71 1.79 1.80 1.55 1.38 1.29 1.17 0.99 0.99 0.95 0.96 1.02 0.84 0.92 1.07 1.16 1.17 1.30 1.39 1.43 1.41 1.15 0.83 0.60 0.48 0.39 0.31 0.26 0.26 0.24 0.25 0.32 0.33 0.29
1.62 1.65 1.39 1.28 1.54 1.68 1.65 1.55 1.74 1.93 1.89 1.90 1.67 1.43 1.22 1.05 0.89 0.86 0.87 0.81 0.80 0.77 0.78 0.80 0.89 0.97 1.28 1.59 1.66 1.65 1.51 1.14 0.80 0.62 0.54 0.46 0.38 0.35 0.27 0.21 0.22 0.21 0.20
1.48 1.67 1.41 1.39 1.65 1.70 1.65 1.73 1.86 2.03 1.91 1.95 1.78 1.32 1.05 0.82 0.79 0.67 0.59 0.60 0.54 0.50 0.54 0.66 0.84 0.84 1.07 1.30 1.40 1.51 1.60 1.46 1.12 0.83 0.72 0.65 0.59 0.48 0.36 0.28 0.23 0.22 0.18
1.53 1.80 1.57 1.57 1.63 1.56 1.55 1.74 1.87 1.80 1.68 2.09 2.01 1.30 0.83 0.65 0.56 0.41 0.41 0.40 0.35 0.35 0.45 0.63 0.78 0.86 0.85 0.87 0.99 1.10 1.34 1.50 1.39 1.10 0.93 0.84 0.78 0.59 0.44 0.37 0.29 0.25 0.20
1.51 1.63 1.64 1.57 1.57 1.53 1.39 1.48 1.73 1.62 1.35 1.79 1.95 1.72 1.11 0.68 0.47 0.32 0.32 0.30 0.32 0.42 0.46 0.48 0.60 0.78 0.82 0.88 0.90 0.78 0.96 1.28 1.46 1.40 1.19 0.96 0.78 0.60 0.49 0.44 0.35 0.29 0.24
1.56 1.64 1.54 1.40 1.36 1.37 1.24 1.24 1.45 1.52 1.32 1.39 1.74 1.99 1.51 0.90 0.64 0.41 0.41 0.43 0.50 0.58 0.59 0.62 0.66 0.70 0.78 0.92 1.03 1.07 0.83 0.94 1.29 1.67 1.59 1.21 0.81 0.58 0.49 0.49 0.49 0.40 0.33
1.70 1.62 1.45 1.28 1.13 1.11 1.06 1.04 1.20 1.31 1.32 1.14 1.28 1.41 1.37 1.27 1.13 0.72 0.52 0.54 0.67 0.72 0.72 0.76 0.73 0.73 0.81 0.97 1.10 1.19 0.90 0.76 0.90 1.42 1.68 1.55 1.17 0.78 0.59 0.62 0.83 0.77 0.53
1.67 1.51 1.37 1.24 1.13 1.05 0.98 0.97 1.01 1.05 1.09 1.01 1.06 1.13 1.20 1.20 1.14 1.03 0.75 0.73 0.72 0.58 0.59 0.64 0.74 0.88 0.90 1.01 1.21 1.22 1.14 1.08 1.01 1.03 1.15 1.25 1.23 1.03 0.83 0.85 1.18 1.39 1.17
1.25 1.19 1.10 1.00 0.95 0.95 0.96 0.94 0.92 0.94 0.95 0.97 0.99 1.02 1.13 1.20 1.24 1.25 1.07 0.93 0.83 0.68 0.65 0.65 0.70 0.84 0.90 0.94 1.00 1.09 1.07 1.05 0.97 0.91 0.88 0.87 0.91 0.98 1.04 1.18 1.49 1.79 1.90
0.70 0.68 0.69 0.71 0.72 0.73 0.74 0.76 0.75 0.77 0.85 0.91 0.93 1.01 1.11 1.20 1.29 1.31 1.22 1.02 0.92 0.83 0.87 0.81 0.72 0.80 0.79 0.91 0.96 0.86 0.71 0.70 0.64 0.63 0.65 0.68 0.77 0.86 0.91 0.99 1.23 1.56 1.83
0.50 0.49 0.52 0.55 0.56 0.60 0.61 0.64 0.65 0.64 0.67 0.72 0.76 0.91 1.04 1.06 1.17 1.26 1.26 1.21 1.12 1.07 1.13 1.04 0.88 0.83 0.84 0.87 0.83 0.72 0.66 0.55 0.44 0.37 0.36 0.35 0.39 0.53 0.68 0.83 0.98 1.10 1.26
0.44 0.45 0.49 0.54 0.57 0.61 0.62 0.60 0.60 0.62 0.70 0.75 0.78 0.87 0.96 1.01 1.08 1.17 1.26 1.30 1.34 1.30 1.28 1.21 0.97 0.88 0.83 0.79 0.80 0.71 0.74 0.55 0.34 0.27 0.26 0.26 0.25 0.25 0.33 0.50 0.69 0.84 1.05
0.43 0.46 0.49 0.55 0.58 0.58 0.55 0.54 0.55 0.58 0.67 0.77 0.86 0.97 1.00 1.01 1.03 1.12 1.25 1.41 1.50 1.47 1.35 1.13 0.99 0.99 0.95 0.84 0.77 0.63 0.56 0.51 0.36 0.26 0.24 0.25 0.24 0.24 0.26 0.38 0.52 0.66 0.82
0.41 0.45 0.48 0.51 0.52 0.53 0.53 0.56 0.56 0.62 0.68 0.73 0.77 0.89 0.97 0.99 1.03 1.08 1.17 1.26 1.40 1.52 1.39 1.20 1.15 1.19 1.20 1.12 0.93 0.73 0.55 0.46 0.38 0.30 0.23 0.21 0.21 0.26 0.32 0.37 0.46 0.55 0.62
0.48 0.49 0.52 0.53 0.51 0.54 0.62 0.68 0.68 0.72 0.77 0.78 0.79 0.81 0.81 0.86 0.96 0.98 1.05 1.09 1.19 1.39 1.35 1.27 1.31 1.34 1.35 1.26 1.11 0.92 0.70 0.55 0.46 0.35 0.25 0.21 0.20 0.21 0.24 0.26 0.34 0.47 0.57
0.53 0.54 0.60 0.67 0.69 0.69 0.69 0.75 0.80 0.82 0.75 0.71 0.71 0.70 0.68 0.70 0.75 0.83 0.93 0.92 0.94 1.07 1.21 1.29 1.41 1.47 1.54 1.41 1.19 1.01 0.86 0.74 0.54 0.40 0.31 0.24 0.22 0.21 0.20 0.20 0.24 0.32 0.46
0.44 0.50 0.58 0.68 0.77 0.82 0.84 0.80 0.75 0.73 0.68 0.64 0.59 0.56 0.58 0.61 0.63 0.67 0.76 0.81 0.84 0.92 1.05 1.16 1.35 1.55 1.56 1.59 1.43 1.19 1.06 0.96 0.73 0.50 0.41 0.33 0.28 0.24 0.21 0.18 0.18 0.22 0.33
0.41 0.52 0.62 0.70 0.82 0.89 0.84 0.80 0.72 0.69 0.68 0.61 0.54 0.49 0.48 0.47 0.49 0.55 0.58 0.63 0.70 0.79 0.84 0.94 1.11 1.35 1.48 1.56 1.49 1.28 1.12 1.10 0.96 0.67 0.53 0.47 0.43 0.36 0.32 0.26 0.19 0.16 0.24
0.36 0.43 0.50 0.57 0.60 0.56 0.58 0.55 0.52 0.51 0.52 0.50 0.47 0.46 0.41 0.38 0.41 0.42 0.40 0.46 0.53 0.58 0.67 0.80 0.89 1.09 1.27 1.36 1.44 1.49 1.33 1.14 1.08 0.93 0.77 0.71 0.62 0.55 0.44 0.33 0.25 0.18 0.17
0.31 0.36 0.38 0.42 0.43 0.43 0.35 0.31 0.30 0.32 0.37 0.40 0.41 0.42 0.34 0.29 0.35 0.37 0.34 0.31 0.34 0.38 0.46 0.62 0.74 0.84 1.04 1.22 1.36 1.51 1.47 1.36 1.25 1.15 1.02 0.97 0.76 0.62 0.54 0.45 0.36 0.23 0.18
0.35 0.37 0.36 0.36 0.41 0.38 0.30 0.23 0.21 0.21 0.27 0.30 0.35 0.39 0.38 0.34 0.34 0.35 0.34 0.29 0.26 0.27 0.31 0.38 0.49 0.65 0.89 1.20 1.35 1.42 1.49 1.52 1.48 1.35 1.19 1.18 1.06 0.87 0.76 0.66 0.55 0.37 0.26
0.43 0.41 0.39 0.38 0.40 0.41 0.32 0.22 0.19 0.21 0.28 0.30 0.32 0.35 0.38 0.36 0.36 0.29 0.31 0.32 0.32 0.31 0.28 0.33 0.40 0.51 0.70 0.96 1.31 1.40 1.38 1.28 1.27 1.08 0.84 0.84 0.93 0.95 0.97 0.90 0.77 0.62 0.46
0.52 0.48 0.44 0.46 0.49 0.53 0.45 0.27 0.21 0.25 0.32 0.38 0.44 0.42 0.39 0.37 0.35 0.29 0.31 0.35 0.33 0.31 0.31 0.31 0.33 0.38 0.46 0.63 0.92 1.13 1.12 0.99 0.88 0.87 0.64 0.52 0.55 0.59 0.72 0.76 0.71 0.67 0.60